Live-Position
3D-Globus wird geladen...
Über Starlink 11508
Group: 3 satellites
Beschreibung wird geladen...
Nächste Überflüge
Passes for default location (London). Set your location on the main map for personalized predictions.
Höhenverlauf
Loading altitude history...
No altitude history available
Zweizeiliger Elementsatz
1 62515U 25004E 26125.61660962 .00200981 00000-0 15244-2 0 9990
2 62515 43.0001 87.4138 0000917 279.6426 80.4338 15.70962536 76163
Epoch: 5. Mai 2026 •
Age: 9 hours
Aktueller Status
Höhe 356.2 km
Geschwindigkeit 7.70 km/s
Subsatellitenpunkt -5.93°S,
143.85°W
Startdatum 8. Jan. 2025
Alter 1.3 years
Typ internet
Startgruppe
Falcon 9 •
Group 12-11 •
21 satellites
Starlink 11452
62511
Starlink 11443 62512
Starlink 11440 62513
Starlink 11514 62514
Starlink 11510 62516
Starlink 11512 62517
Starlink 11450 62518
Starlink 11507 62519
Starlink 11482 62520
Starlink 11528 62521
Starlink 11516 62522
Starlink 11527 62523
Starlink 32748 62524
Starlink 32777 62525
Starlink 32741 62526
Starlink 32754 62527
Starlink 32786 62528
Starlink 32789 62529
Starlink 32791 62530
Starlink 32785 62531
Technische Details
Klassifizierung Payload
Masse 960.00 kg
Trockenmasse 910.00 kg
Gesamtmasse 960.00 kg
Länge 0.30 m
Durchmesser 4.10 m
Spannweite 29.00 m
Form Box + pan
Hersteller SPXS
Bus-Typ Starlink V2MD
Phasenstatus In Orbit
Besitzer/Staat SPXS/US
Most Searched
Loading...